Location: Herksen
(52.4316°N, 6.1319°E)
Time: 11:13:48
(UTC+00:00)

Terra - Pass Details

Date: 15 May 2026
Orbit: 689 x 690 km, 97.9° (Epoch: 6 June)

Event Time Altitude Azimuth Distance (km) Brightness Sun altitude
Rises 21:26:23 0° 221° (SW) 3,054 4.9 -13.5°
Reaches altitude 10° 21:30:04 10° 252° (WSW) 2,145 4.5 -13.8°
Maximum altitude 21:31:57 12° 276° (W) 2,000 4.6 -13.9°
Drops below altitude 10° 21:33:50 10° 299° (WNW) 2,152 5.3 -14.1°
Sets 21:37:34 0° 330° (NNW) 3,076 7.1 -14.3°
